TimeMST,TemperatureF,Dew PointF,Humidity,Sea Level PressureIn,VisibilityMPH,Wind Direction,Wind SpeedMPH,Gust SpeedMPH,PrecipitationIn,Events,Conditions,WindDirDegrees,DateUTC
12:55 AM,16.0,10.0,77,30.46,10.0,Calm,Calm,-,N/A,,Clear,0,2013-02-03 07:55:00
1:55 AM,15.1,10.0,80,30.44,10.0,SSE,3.5,-,N/A,,Clear,150,2013-02-03 08:55:00
2:55 AM,12.9,8.1,81,30.43,10.0,Calm,Calm,-,N/A,,Clear,0,2013-02-03 09:55:00
3:55 AM,14.0,9.0,80,30.40,10.0,Calm,Calm,-,N/A,,Clear,0,2013-02-03 10:55:00
4:55 AM,15.1,10.0,80,30.37,10.0,Calm,Calm,-,N/A,,Clear,0,2013-02-03 11:55:00
5:55 AM,12.0,8.1,84,30.40,10.0,SW,3.5,-,N/A,,Clear,220,2013-02-03 12:55:00
6:55 AM,10.0,6.1,84,30.40,10.0,Calm,Calm,-,N/A,,Clear,0,2013-02-03 13:55:00
7:55 AM,10.0,5.0,80,30.42,10.0,ESE,3.5,-,N/A,,Clear,120,2013-02-03 14:55:00
8:55 AM,15.1,10.0,80,30.41,10.0,Calm,Calm,-,N/A,,Clear,0,2013-02-03 15:55:00
9:55 AM,16.0,12.0,84,30.39,10.0,Calm,Calm,-,N/A,,Clear,0,2013-02-03 16:55:00
10:55 AM,21.0,14.0,74,30.38,10.0,North,3.5,-,N/A,,Clear,350,2013-02-03 17:55:00
11:55 AM,24.1,14.0,65,30.35,10.0,Calm,Calm,-,N/A,,Clear,0,2013-02-03 18:55:00
12:55 PM,28.0,16.0,61,30.30,10.0,Calm,Calm,-,N/A,,Clear,0,2013-02-03 19:55:00
1:55 PM,30.0,17.1,59,30.27,10.0,Calm,Calm,-,N/A,,Clear,0,2013-02-03 20:55:00
2:55 PM,30.9,17.1,57,30.25,10.0,SSE,3.5,-,N/A,,Clear,160,2013-02-03 21:55:00
3:55 PM,33.1,18.0,54,30.23,10.0,Calm,Calm,-,N/A,,Clear,0,2013-02-03 22:55:00
4:55 PM,32.0,19.0,59,30.22,10.0,Calm,Calm,-,N/A,,Clear,0,2013-02-03 23:55:00
5:55 PM,23.0,15.1,72,30.26,10.0,WSW,3.5,-,N/A,,Clear,250,2013-02-04 00:55:00
6:55 PM,24.1,15.1,69,30.28,10.0,Calm,Calm,-,N/A,,Clear,0,2013-02-04 01:55:00
7:55 PM,19.0,12.9,77,30.30,10.0,Calm,Calm,-,N/A,,Clear,0,2013-02-04 02:55:00
8:55 PM,19.0,12.9,77,30.28,10.0,Calm,Calm,-,N/A,,Clear,0,2013-02-04 03:55:00
9:55 PM,19.9,15.1,81,30.27,10.0,Calm,Calm,-,N/A,,Clear,0,2013-02-04 04:55:00
10:55 PM,21.0,14.0,74,30.25,10.0,Calm,Calm,-,N/A,,Clear,0,2013-02-04 05:55:00
11:55 PM,18.0,12.0,78,30.24,9.0,Calm,Calm,-,N/A,,Clear,0,2013-02-04 06:55:00